ATLAS CENTAUR 2 R/B, 694

Orbit data source: Space-Track

ATLAS CENTAUR 2 R/B, 694 is space debris in LEO originally from a launch on Wed, 27 Nov 1963 UTC via an ATLAS CENTAUR launch vehicle from the Air Force Eastern Test Range (AFETR). Debris objects in space refer to the collection of defunct objects orbiting the Earth. Examples of debris include non-operational satellites, rocket bodies, and fragments generated from explosions, collisions, or faulty payload assembly.

Loading next visibility...
Identifier
694, 1963-047A
Orbit
LEO
Country
Flag of USUS
Related business
Manufacturer
GD/Convair
Mission
Spacecraft
Bus & Motor
AC R&D, Unknown motor
Mass
4,300 kg wet, 900 kg dry
Launch date (UTC)
1963-11-27 (62 years ago)
Launch vehicle
ATLAS CENTAUR
Launch site
Air Force Eastern Test Range (AFETR)
Object type
Payload
Rocket body
Debris
Shape & HBR
Unknown
Radar Cross Section
Large (>1 m²)

Expand to show TLE details & history
Last TLE update: 2 days ago

TLE from 2 days ago
0 ATLAS CENTAUR 2 R/B
1   694U 63047A   25306.34298269  .00003776  00000-0  45642-3 0  9995
2   694  30.3524 187.0379 0550226  38.4295 325.4211 14.11362081113611
Epoch: 2025-11-02T08:13Z
TLE epoch observation values (Epoch: 2025-11-02T08:13:53.704Z)
Latitude
-0.00002°
Longitude
21.70403°
Altitude
533.187 km
Speed
7.764 km/s
True Right ascension
12h 28m 09s
True Declination
0° 00' 00"
Sunlit
Object was in daylight at epoch
Visualization orbit readout
Latitude
Unknown
Longitude
Unknown
Altitude
Unknown
Speed
Unknown
Apparent Right ascension
Unknown
Apparent Declination
Unknown
Sunlit
N/A
Visualization observer readout
Local Sidereal Time
16:35:40
Azimuth
Unknown
Elevation
Unknown
Doppler factor
Unknown
Orbital elements
Apogee altitude
1,256.673 km
Perigee altitude
460.316 km
Semi-major axis
7,236.631 km
Eccentricity
0.05502
Inclination
30.3524°
RAAN
187.0379°
Arg. of periapsis
38.4295°
True anomaly
321.63122°
Mean anomaly
325.4211°
Eccentric anomaly
323.54801°
Mean motion
3.52564 °/min
Orbital period
102.11 mins
BSTAR
0.00045642
Loading maneuver chart data...
Computing Atmospheric mass density...

Documentation

Showing up to 5 results
|